Voltar ao catálogo

FENGYUN 1C DEB

AtivoSSO
NORAD 33716·DEBRIS·🇨🇳 China

Lançado May 10, 1999 de Taiyuan Satellite Launch Center

Loading…

Próximas Passagens (próximas 24 horas)

TLE

AtualizadoSource: Space-Track

Época: Sep 12, 2026, 02:10 UTC

1 33716U 99025DHD 26255.09041265  .00000167  00000-0  75159-4 0  9997
2 33716  98.8884 192.4920 0092175 277.3743  81.6972 14.32880681690729

Acompanhe FENGYUN 1C DEB em tempo real com AllMySat

Download on the App Store